Regional Weather Roundup
Issued by NWS Jackson, KY

Home | Current Version | Previous Version | Graphics & Text | Print | Product List | Glossary On
Versions: 1 2 3 4 5 6 7 8 9 10 11 12 13 14 15 16 17 18 19 20 21 22 23 24 25 26 27
000
ASUS43 KJKL 160810
RWRJKL

EAST KENTUCKY HOURLY WEATHER ROUNDUP
NATIONAL WEATHER SERVICE JACKSON KY
300 AM EST MON JAN 16 2017

NOTE: "FAIR" INDICATES FEW OR NO CLOUDS BELOW 12,000 FEET WITH
NO SIGNIFICANT WEATHER AND/OR OBSTRUCTIONS TO VISIBILITY.

* THESE REPORTS ARE NOT UNDER NWS QUALITY CONTROL AND MAY NOT
  REPORT WEATHER SUCH AS PRECIPITATION AND FOG.

KYZ079-080-083-085-087-088-110-112-115-119-120-160900
...EASTERN KENTUCKY...

CITY           SKY/WX    TMP DP  RH WIND       PRES   REMARKS
JACKSON        FOG       41  40  96 CALM      30.27R VSB 1/4
LONDON         FOG       45  43  93 CALM      30.26S VSB 1/2
SOMERSET*      FOG       45  45 100 CALM      30.27S VSB 3/4
WILLIAMSBURG*  CLOUDY    46  46 100 CALM      30.26S VSB<1/4
MIDDLESBORO*   CLOUDY    50  50 100 CALM      30.27F
HARLAN APT*    CLOUDY    50  48  93 CALM      30.27S
PIKE CO APT*   FOG       41  41 100 N6        30.27S VSB 1/4
BIG SANDY APT* FOG       40  40 100 NE3       30.29S VSB 3/4
MOREHEAD APT*  CLOUDY    39  37  93 E6        30.30S FOG     WCI  35
ASHLAND*       CLOUDY    39  36  87 SE3       30.30S
$$

KYZ035-036-041-042-044-050-067-078-099-160900
...CENTRAL KENTUCKY...

CITY           SKY/WX    TMP DP  RH WIND       PRES   REMARKS
MT STERLING*   FOG       37  37 100 E5        30.29R VSB 1   WCI  34
FLEMING/MASON* FOG       37  37 100 E7        30.30F VSB 1   WCI  32
DANVILLE*      FOG       41  41 100 CALM      30.27S VSB 1/2
LEXINGTON      CLOUDY    41  39  93 SE5       30.27R
FRANKFORT      CLOUDY    41  38  89 E5        30.26S
LOUISVILLE     CLOUDY    42  39  89 NE3       30.27R
LEBANON*       CLOUDY    41  41 100 CALM      30.25F FOG
GLASGOW*       CLOUDY   N/A N/A N/A CALM      30.25R FOG
BOWLING GREEN  FOG       46  45  96 E3        30.24S VSB 1/2
$$

KYZ091>093-OHZ055-061-077-WVZ005-015-034-035-042-160900
...SOUTHERN OHIO/WEST VIRGINIA...

CITY           SKY/WX    TMP DP  RH WIND       PRES   REMARKS
COVINGTON      CLOUDY    38  37  97 E8        30.28S FOG     WCI  32
COLUMBUS       CLOUDY    34  29  82 E7        30.33S WCI  28
DAYTON         CLOUDY    34  32  92 NE5       30.32R FOG     WCI  30
WILMINGTON     CLOUDY    34  34 100 E6        30.30R FOG     WCI  29
HUNTINGTON     CLOUDY    39  37  92 E5        30.31R FOG
CHARLESTON     CLOUDY    40  39  97 CALM      30.31S
BECKLEY        CLOUDY    44  43  96 CALM      30.27S FOG
BLUEFIELD      CLOUDY    48  47  96 SW5       30.28F
LOGAN CO APT*  FOG       43  43 100 NE3       30.28R VSB<1/4
$$

VAZ002-007-008-TNZ017-027-036-066-071-160900
...SOUTHWEST VIRGINIA/EAST TENNESSEE...

CITY           SKY/WX    TMP DP  RH WIND       PRES   REMARKS
WISE*          CLOUDY    50  50 100 CALM      30.28S FOG
JONESVILLE*    FOG       52  52 100 CALM      30.29R VSB 1/2
ABINGDON*      FOG       56  56 100 CALM      30.28S VSB 1/2
BRISTOL        CLOUDY    55  54  96 CALM      30.27S FOG
MORRISTOWN*    FOG       55  55 100 E3        30.26S VSB 1/4
SEVIERVILLE*   CLOUDY    52  52 100 CALM      30.26R VSB 1/2
KNOXVILLE      FOG       54  53  97 E3        30.24S VSB 1/4
LAFOLLETTE*    CLOUDY    52  52 100 CALM      30.29S
OAK RIDGE      CLOUDY    55  52  89 CALM      30.26S
CROSSVILLE     MOCLDY    51  50  96 CALM      30.25S FOG
NASHVILLE      FOG       50  49  96 NE5       30.24R VSB 1/4
$$

...KEY TO REMARKS...
VSB - VISIBILITY IN MILES
WCI - WIND CHILL INDEX
HX  - HEAT INDEX

$$




USA.gov is the U.S. government's official web portal to all federal, state and local government web resources and services.